Overview Statistics Trail Chart Weather Telemetry Raw packets
 

This is the latest recevied weather packets stored in our database for station/object KA1BMF-13. If no packets are shown the sender has not sent any weather packets the latest 10 day(s).

<< 37 38 39 40 41 42 43 >>
Time Temp. Humidity Pressure Rain* Wind** Luminosity Snow
1787945720 27.78° C 67% 1015.3 hPa 0 mm - 481 W/m² -
1787945117 27.78° C 68% 1015.2 hPa 0 mm - 573 W/m² -
1787944518 27.78° C 68% 1015.3 hPa 0 mm - 265 W/m² -
1787943918 28.33° C 68% 1015.3 hPa 0 mm - 198 W/m² -
1787943318 28.33° C 68% 1015.3 hPa 0 mm - 674 W/m² -
1787942718 27.78° C 67% 1015.3 hPa 0 mm - 676 W/m² -
1787942118 27.78° C 68% 1015.4 hPa 0 mm - 691 W/m² -
1787941519 27.78° C 70% 1015.4 hPa 0 mm - 650 W/m² -
1787940919 28.33° C 67% 1015.6 hPa 0 mm - 359 W/m² -
1787940319 27.78° C 69% 1015.6 hPa 0 mm - 309 W/m² -
1787939716 27.78° C 68% 1015.5 hPa 0 mm - 451 W/m² -
1787939117 28.33° C 69% 1015.5 hPa 0 mm - 519 W/m² -
1787938519 28.33° C 67% 1015.5 hPa 0 mm - 838 W/m² -
1787937920 27.78° C 70% 1015.5 hPa 0 mm - 786 W/m² -
1787937317 27.22° C 69% 1015.6 hPa 0 mm - 737 W/m² -
1787936717 27.22° C 68% 1015.6 hPa 0 mm - 530 W/m² -
1787936117 26.67° C 68% 1015.6 hPa 0 mm - 790 W/m² -
1787935517 26.67° C 70% 1015.7 hPa 0 mm - 749 W/m² -
1787934917 26.67° C 68% 1015.8 hPa 0 mm - 763 W/m² -
1787934317 26.67° C 73% 1015.9 hPa 0 mm - 746 W/m² -
1787933718 26.67° C 75% 1016 hPa 0 mm - 471 W/m² -
1787933118 26.67° C 77% 1015.9 hPa 0 mm - 306 W/m² -
1787932518 26.11° C 77% 1015.9 hPa 0 mm - 320 W/m² -
1787931919 26.11° C 81% 1016 hPa 0 mm - 472 W/m² -
1787931319 26.11° C 79% 1016.1 hPa 0 mm - 202 W/m² -

* Rain latest hour (hover to see other rain measurements)
** Current wind speed in m/s (hover to see current wind gust speed)